Regional Weather Roundup
Issued by NWS Sioux Falls, SD

Home | Current Version | Previous Version | Text Only | Print | Product List | Glossary On
Versions: 1 2 3 4 5 6 7 8 9 10 11 12 13 14 15 16 17 18 19 20 21 22 23 24 25 26 27 28 29 30 31 32 33 34 35 36 37 38 39 40 41 42 43 44 45 46 47 48 49 50
000
ASUS43 KFSD 301710
RWRFSD

WEATHER ROUNDUP FOR SE SOUTH DAKOTA/SW MINNESOTA/NW IOWA
NATIONAL WEATHER SERVICE SIOUX FALLS SD
1200 PM CDT MON MAR 30 2020

NOTE: "FAIR" INDICATES FEW OR NO CLOUDS BELOW 12,000 FEET WITH NO
SIGNIFICANT WEATHER AND OR OBSTRUCTIONS TO VISIBILITY.


SDZ038>040-050-052>070-301800-
SOUTHEAST SOUTH DAKOTA

CITY           SKY/WX    TMP DP  RH WIND       PRES   REMARKS
BROOKINGS      FAIR      52  23  32 SE10      30.20F
CHAMBERLAIN    FAIR      53  36  53 SE22      30.09F
HURON          FAIR      53  31  42 SE14      30.15F
MADISON        FAIR      50  32  50 SE12      30.19F
MITCHELL       FAIR      54  35  48 SE18      30.16F
SIOUX FALLS    FAIR      55  28  35 SE9       30.20F
WINNER         FAIR      61  34  36 SE17      30.06F
YANKTON        FAIR      55  35  47 SE13      30.17F
$$

MNZ071-072-080-081-089-090-097-098-301800-
SOUTHWEST MINNESOTA

CITY           SKY/WX    TMP DP  RH WIND       PRES   REMARKS
FAIRMONT       FAIR      50  30  46 E5        30.26F
JACKSON        FAIR      54  23  30 SE5       30.24F
LUVERNE        FAIR      52  25  35 E8        30.22F
MARSHALL       FAIR      50  33  52 SE9       30.24S
MONTEVIDEO     FAIR      50  28  43 S7        30.25S
PIPESTONE        N/A     50  30  46 S9        30.21F
REDWOOD FALLS  FAIR      49  32  52 VRB5      30.26R
TRACY          FAIR      52  34  50 SE8       30.23F
WINDOM         FAIR      54  19  26 S5        30.23F
WORTHINGTON    FAIR      51  31  46 SE7       30.24F
$$

IAZ001>003-012>014-020>022-031-032-NEZ013-014-SDZ071-301800-
NORTHWEST IOWA

CITY           SKY/WX    TMP DP  RH WIND       PRES   REMARKS
CHEROKEE       FAIR      54  30  39 SE5       30.23F
DENISON        FAIR      57  28  33 E8        30.23F
ESTHERVILLE    FAIR      52  25  35 SE6       30.23F
LE MARS        FAIR      55  27  33 SE10      30.21F
MAURICE        FAIR      55  30  38 SE9       30.21F
SHELDON        FAIR      54  27  35 SE9       30.21S
SIOUX CITY     FAIR      55  33  43 SE12      30.20F
SPENCER        FAIR      55  26  32 SE6       30.24S
STORM LAKE     FAIR      52  28  40 SE9       30.20S
$$

ABBREVIATIONS USED IN REMARKS
   TC - TEMPERATURE IN CELSIUS
  WCI - WIND CHILL INDEX
   HX - HEAT INDEX
  VSB - VISIBILITY





USA.gov is the U.S. government's official web portal to all federal, state and local government web resources and services.